[[{"header":{"parameterUnit":"m.s-1","parameterCategory":1,"la1":30.2991,"la2":30.254,"lo1":-89.0895,"lo2":-89.0444,"dy":0.0017,"dx":0.0017,"nx":28,"ny":28,"refTime":"2024-08-09T03:00:00:Z","depth":0,"parameterNumber":2,"parameterNumberName":"U-component_of_WINDS"},"data":[0,0,0,0,0,0,0,0,0,0,0,0,0,0,0,0,0,0,0,0,0,0,0,0,0,0,0,0,0,0,0,0,0,0,0,0,0,0,0,0,0,0,0,0,0,0,0,0,0,0,0,0,0,0,0,0,0,0,2.1352,2.1354,0,2.1515,2.1517,2.1519,2.1549,2.1548,2.1547,2.1545,2.1712,2.1717,2.1723,0,0,0,0,0,0,0,0,0,0,0,0,0,2.1068,2.1073,2.1352,2.1354,2.1356,2.1515,2.1517,2.1519,2.1549,2.1548,2.1546,2.1545,2.171,2.1717,2.1723,0,0,0,0,0,0,0,0,0,0,0,0,0,2.1207,2.1074,2.1352,2.139,2.1396,2.1514,2.1517,2.152,2.155,2.1548,2.1546,2.1544,2.1708,2.1716,2.1724,2.1816,0,0,2.175,2.1754,0,0,0,0,0,0,0,0,2.1199,2.1217,2.1383,2.1388,2.1394,2.151,2.1478,2.1619,2.155,2.1491,2.1545,2.1543,2.1646,2.166,2.1694,2.1824,2.1831,2.1751,2.1756,2.176,2.1762,0,0,0,0,0,0,0,2.1189,2.121,2.1416,2.1385,2.1392,2.14,2.1417,2.1504,2.1578,2.1496,2.1499,2.1518,2.1649,2.1686,2.1699,2.1833,2.1751,2.1758,2.1764,2.1767,2.2045,2.2047,0,0,0,0,0,0,2.1173,2.1202,2.1411,2.1421,2.129,2.1406,2.1426,2.1474,2.1577,2.1591,2.1519,2.1518,2.1673,2.1689,2.1704,2.1817,2.176,2.1768,2.1773,2.2043,2.2045,2.2048,0,0,0,0,0,0,2.1166,2.1191,2.1405,2.1313,2.134,2.1413,2.1468,2.1479,2.1516,2.1594,2.1607,2.1544,2.1672,2.1693,2.1788,2.1823,2.1772,2.1779,2.204,2.2043,2.2047,2.2044,0,0,0,0,0,0,2.1158,2.1189,2.1224,2.1313,2.1345,2.1485,2.147,2.1483,2.1531,2.1531,2.1621,2.1634,2.1672,2.1775,2.1796,2.1834,2.1786,2.2037,2.2041,2.2046,2.2041,2.2047,2.2052,0,0,0,0,0,2.1148,2.1217,2.1226,2.1251,2.1391,2.1487,2.1505,2.1548,2.1533,2.1569,2.162,2.1631,2.1817,2.1784,2.1809,2.185,2.2035,2.204,2.2045,2.2039,2.2046,2.2052,0,0,0,0,0,0,2.113,2.1229,2.124,2.134,2.1405,2.1492,2.1539,2.1554,2.1624,2.1622,2.1672,2.1692,2.1784,2.1827,2.1789,2.1943,2.1925,2.1935,2.1911,2.1919,2.1924,2.1911,2.1793,0,0,0,0,0,2.1138,2.1208,2.1291,2.1371,2.1403,2.1465,2.1509,2.1536,2.1605,2.1633,2.169,2.1756,2.183,2.1877,2.1949,2.2048,2.2067,2.2088,2.2094,2.2098,2.2105,2.216,2.217,2.2065,2.2065,2.2065,0,0,2.1154,2.1217,2.1258,2.1369,2.1422,2.1493,2.1488,2.1564,2.1617,2.1644,2.1737,2.1781,2.1859,2.1956,2.2002,2.1995,2.2139,2.2104,2.2107,2.2113,2.2166,2.2176,2.2185,2.2068,2.2068,2.2067,0,0,2.122,2.1276,2.1348,2.1402,2.1483,2.1524,2.1541,2.1626,2.1657,2.1751,2.1773,2.1837,2.1962,2.2017,2.206,2.2147,2.216,2.217,2.2197,2.2249,2.2258,2.2265,2.2295,2.2305,2.2178,2.2178,2.2178,0,2.1231,2.1338,2.1383,2.1458,2.1505,2.1534,2.1607,2.1657,2.1758,2.179,2.178,2.1938,2.1993,2.2102,2.2123,2.2159,2.2179,2.2159,2.2253,2.2261,2.2269,2.2297,2.2309,2.2178,2.2178,2.2178,2.2178,0,2.1346,2.1421,2.147,2.1565,2.1619,2.1692,2.1748,2.1797,2.182,2.1861,2.1957,2.2023,2.2108,2.2137,2.216,2.225,2.2243,2.2243,2.2225,2.2278,2.2306,2.2318,2.2179,2.2179,2.2178,2.2178,0,0,2.1404,2.1524,2.1541,2.1585,2.1677,2.1735,2.181,2.1893,2.1933,2.2002,2.2065,2.2171,2.2171,2.2221,2.2251,2.2297,2.236,2.2292,2.2294,2.2301,2.2462,2.246,2.2472,2.237,2.2372,2.2374,2.2455,0,2.148,2.1614,2.1657,2.1768,2.1837,2.1866,2.1931,2.1994,2.2035,2.21,2.2146,2.2219,2.2215,2.2245,2.2293,2.2343,2.2393,2.2338,2.2429,2.2431,2.2406,2.2487,2.2486,2.2559,2.2467,2.2468,2.247,0,2.1586,2.1656,2.1774,2.1857,2.1887,2.1945,2.2025,2.2086,2.2158,2.2185,2.2241,2.2267,2.2346,2.2325,2.2434,2.2395,2.2435,2.2465,2.2469,2.2478,2.2452,2.2497,2.2583,2.2594,2.2488,2.2486,2.2485,0,2.1614,2.1738,2.1825,2.1862,2.1961,2.2,2.2043,2.2114,2.2161,2.2231,2.2262,2.234,2.2383,2.2443,2.2489,2.247,2.2594,2.2577,2.2618,2.2616,2.2641,2.2638,2.2733,2.2669,2.2669,2.2669,2.2669,0,2.1693,2.1764,2.1839,2.1892,2.1972,2.2021,2.2099,2.2144,2.2206,2.2268,2.2298,2.2356,2.2414,2.248,2.2517,2.2601,2.262,2.2644,2.2652,2.264,2.2637,2.2666,2.2661,2.2672,2.2671,2.2671,2.267,0,2.1738,2.1791,2.1887,2.1973,2.1996,2.2051,2.2125,2.2177,2.222,2.2298,2.2319,2.2387,2.2465,2.2518,2.2619,2.2643,2.2734,2.2743,2.2709,2.2713,2.2751,2.2746,2.2866,2.2884,2.2809,2.281,2.281,0,2.1784,2.1839,2.1931,2.1975,2.2018,2.2088,2.2136,2.2187,2.2236,2.2322,2.2364,2.2445,2.2511,2.2635,2.2693,2.277,2.278,2.2817,2.2791,2.2777,2.2779,2.2774,2.2779,2.282,2.2821,2.2821,2.2822,0,2.186,2.1883,2.1952,2.203,2.2086,2.215,2.2214,2.2248,2.231,2.2363,2.2444,2.2496,2.2598,2.2677,2.276,2.2804,2.2823,2.2829,2.2843,2.283,2.2807,2.2819,2.2718,2.2826,2.2825,2.2825,2.2825,2.2825,2.1906,2.1955,2.2028,2.2103,2.2156,2.2215,2.2269,2.2318,2.2386,2.2473,2.2499,2.2583,2.2654,2.2766,2.2812,2.2878,2.2874,2.2894,2.2899,2.2902,2.2901,2.2798,2.2893,2.2893,2.2893,2.2893,2.2893,0,2.1981,2.2029,2.2098,2.2186,2.2246,2.2259,2.233,2.2379,2.2452,2.2516,2.2581,2.2673,2.2751,2.2815,2.2894,2.2935,2.2945,2.2954,2.295,2.296,2.2901,2.2881,2.2944,2.2944,2.2944,2.2944,2.2944,2.2944,2.2028,2.2112,2.2145,2.2256,2.2304,2.2386,2.2425,2.248,2.2531,2.2633,2.2697,2.2738,2.2803,2.2887,2.2958,2.2975,2.3002,2.3009,2.3027,2.297,2.2964,2.2959,2.294,2.3015,2.3015,2.3081,2.3082,2.3082]},{"header":{"parameterUnit":"m.s-1","parameterCategory":1,"la1":30.2991,"la2":30.254,"lo1":-89.0895,"lo2":-89.0444,"dy":0.0017,"dx":0.0017,"nx":28,"ny":28,"refTime":"2024-08-09T03:00:00:Z","depth":0,"parameterNumber":3,"parameterNumberName":"V-component_of_WINDS"},"data":[0,0,0,0,0,0,0,0,0,0,0,0,0,0,0,0,0,0,0,0,0,0,0,0,0,0,0,0,0,0,0,0,0,0,0,0,0,0,0,0,0,0,0,0,0,0,0,0,0,0,0,0,0,0,0,0,0,0,2.5302,2.5302,0,2.5271,2.5271,2.5271,2.5202,2.52,2.5199,2.5197,2.5167,2.5168,2.5168,0,0,0,0,0,0,0,0,0,0,0,0,0,2.53,2.53,2.5302,2.5301,2.5301,2.5272,2.5271,2.5271,2.5202,2.52,2.5198,2.5197,2.5167,2.5167,2.5168,0,0,0,0,0,0,0,0,0,0,0,0,0,2.5288,2.5301,2.5302,2.5263,2.5259,2.5272,2.5271,2.5271,2.5202,2.52,2.5198,2.5196,2.5167,2.5167,2.5168,2.5216,0,0,2.5171,2.5171,0,0,0,0,0,0,0,0,2.5289,2.5289,2.5269,2.5266,2.5262,2.5238,2.5259,2.5252,2.5203,2.5224,2.5197,2.5195,2.5192,2.5191,2.519,2.5214,2.5213,2.5171,2.5171,2.5171,2.5172,0,0,0,0,0,0,0,2.529,2.529,2.529,2.5269,2.5264,2.5247,2.5243,2.5258,2.5221,2.5222,2.5217,2.5214,2.519,2.5189,2.5189,2.5213,2.5171,2.5171,2.5172,2.5172,2.5273,2.5275,0,0,0,0,0,0,2.5296,2.5291,2.5291,2.5289,2.527,2.5249,2.5244,2.5248,2.522,2.5214,2.5216,2.5211,2.5189,2.5188,2.5187,2.524,2.5171,2.5172,2.5173,2.5271,2.5274,2.5276,0,0,0,0,0,0,2.5297,2.5297,2.5292,2.5288,2.5286,2.5251,2.5256,2.5248,2.5248,2.5216,2.5209,2.5222,2.5187,2.5186,2.5209,2.5238,2.5173,2.5173,2.5268,2.5272,2.5275,2.5347,0,0,0,0,0,0,2.5297,2.5298,2.5316,2.5289,2.5287,2.5314,2.5257,2.5249,2.5249,2.5242,2.522,2.5214,2.5186,2.5208,2.521,2.5238,2.5174,2.5266,2.527,2.5274,2.5342,2.5353,2.5362,0,0,0,0,0,2.5297,2.5338,2.5317,2.5317,2.5308,2.5316,2.5315,2.5281,2.5252,2.5269,2.5249,2.5215,2.5235,2.5211,2.5212,2.5241,2.5264,2.5269,2.5274,2.5338,2.5351,2.5362,0,0,0,0,0,0,2.5369,2.5333,2.531,2.5343,2.5333,2.5304,2.5326,2.5296,2.5294,2.5288,2.5247,2.5242,2.527,2.5258,2.5232,2.5285,2.5244,2.5249,2.5292,2.5304,2.5314,2.5316,2.5174,0,0,0,0,0,2.5388,2.5397,2.5366,2.5399,2.5395,2.5361,2.5363,2.5338,2.5326,2.5322,2.5303,2.5292,2.5296,2.53,2.5301,2.534,2.5334,2.5361,2.5371,2.5379,2.5384,2.5402,2.5414,2.5292,2.5292,2.5292,0,0,2.5429,2.5411,2.5419,2.5412,2.5402,2.5412,2.5358,2.5371,2.5378,2.5324,2.5343,2.5329,2.5315,2.5346,2.5358,2.5336,2.5416,2.5385,2.5392,2.5393,2.5409,2.542,2.543,2.5296,2.5295,2.5295,0,0,2.5508,2.5496,2.552,2.5511,2.5495,2.5472,2.5478,2.5454,2.5442,2.5461,2.542,2.5428,2.5436,2.5427,2.5423,2.5498,2.5467,2.55,2.5551,2.557,2.5579,2.5587,2.5613,2.5623,2.5505,2.5505,2.5506,0,2.5561,2.5574,2.5537,2.5553,2.555,2.5501,2.5526,2.5518,2.5504,2.5503,2.5479,2.5487,2.5474,2.5501,2.552,2.5519,2.5524,2.5502,2.5581,2.5589,2.5596,2.562,2.563,2.551,2.5509,2.5509,2.5508,0,2.5639,2.5649,2.5671,2.5658,2.5658,2.5678,2.5644,2.5649,2.5624,2.5604,2.5623,2.5606,2.5603,2.5608,2.5584,2.5631,2.5618,2.5588,2.5545,2.5612,2.5634,2.5643,2.5515,2.5514,2.5513,2.5512,0,0,2.5762,2.5728,2.5737,2.5729,2.5708,2.5715,2.5733,2.5729,2.5734,2.5726,2.5739,2.5746,2.5718,2.5714,2.5688,2.5705,2.5764,2.5672,2.5671,2.5689,2.5814,2.5836,2.5848,2.5743,2.5744,2.5746,2.5815,0,2.5836,2.5863,2.583,2.5865,2.5873,2.5826,2.5841,2.583,2.5811,2.5816,2.5795,2.5801,2.5763,2.5761,2.5775,2.5754,2.5788,2.5748,2.5754,2.5755,2.5759,2.5859,2.5883,2.5949,2.5823,2.5825,2.5826,0,2.5925,2.592,2.5956,2.5931,2.5933,2.5947,2.5941,2.5946,2.5931,2.5917,2.5912,2.5881,2.5896,2.5855,2.5875,2.5849,2.5849,2.5839,2.5841,2.584,2.5794,2.586,2.597,2.598,2.5839,2.5838,2.5837,0,2.601,2.6013,2.6034,2.6029,2.6001,2.6012,2.6001,2.5985,2.5984,2.5979,2.5978,2.5975,2.5973,2.5971,2.594,2.5913,2.5963,2.592,2.5951,2.5952,2.5963,2.5963,2.6074,2.5965,2.5965,2.5965,2.5965,0,2.6095,2.6118,2.6071,2.6085,2.6109,2.6071,2.6096,2.608,2.6066,2.6075,2.6034,2.6043,2.6002,2.6006,2.5982,2.6002,2.6001,2.599,2.5983,2.5993,2.5994,2.5992,2.5987,2.5968,2.5967,2.5966,2.5966,0,2.6194,2.6164,2.6184,2.6155,2.6149,2.6168,2.6143,2.6154,2.6133,2.6145,2.6145,2.6112,2.6115,2.6084,2.6081,2.6065,2.6095,2.6081,2.61,2.6095,2.6128,2.6125,2.6241,2.6254,2.6138,2.6139,2.614,0,2.625,2.6266,2.624,2.6242,2.6233,2.6239,2.6238,2.6201,2.6202,2.6186,2.6198,2.6198,2.6196,2.6204,2.6179,2.6177,2.6161,2.6202,2.6161,2.617,2.6161,2.616,2.6161,2.6211,2.6212,2.6213,2.6214,0,2.6352,2.6336,2.6336,2.6331,2.6331,2.6326,2.6318,2.6322,2.6282,2.6285,2.6287,2.6286,2.6283,2.6283,2.6276,2.6264,2.6232,2.6228,2.6234,2.6245,2.6255,2.6249,2.6123,2.6225,2.6224,2.6223,2.6223,2.6222,2.643,2.6442,2.6425,2.6427,2.6416,2.641,2.6418,2.6397,2.6399,2.6393,2.6371,2.6378,2.6362,2.6349,2.634,2.6344,2.6324,2.6335,2.6337,2.634,2.6346,2.6255,2.6343,2.6342,2.6342,2.6342,2.6342,0,2.6529,2.6516,2.6517,2.6507,2.6508,2.6478,2.6467,2.647,2.6476,2.6464,2.6462,2.6465,2.6465,2.644,2.6437,2.6445,2.643,2.6445,2.6444,2.6442,2.6364,2.6358,2.6457,2.6457,2.6457,2.6457,2.6457,2.6457,2.6581,2.66,2.6582,2.6595,2.6581,2.6586,2.6583,2.6576,2.6566,2.6571,2.657,2.6554,2.6536,2.6531,2.653,2.6522,2.6523,2.6542,2.653,2.6458,2.6447,2.6437,2.643,2.6543,2.6543,2.6607,2.6608,2.6608]}]]